TRA3W LCPH-EHAM

Flight info

Callsign TRA3W
Flight time 4h 11m
Altitude 36000
Route GENOS DCT PEDER DCT LUTIG DCT EXELA UN127 IMR/N0443F380 UN127 RIKSO/N0443F380 DCT FSK DCT DISOR DCT LONTA UL608 DOLEV DCT IRDIV DCT PODET DCT SIMBA DCT EXITI DCT SULUS L604 GASKA/N0447F400 DCT MASEK DCT MAPOX DCT NORKU
Aircraft B738/M-SDE2E3FGHIJ1RWXYZ/LB1

Departure

Time 2026-04-27 17:30
Airport Paphos International Airport (LCPH)

Arrival

Time 2026-04-27 21:41
Airport Amsterdam Airport Schiphol (EHAM)
Time Latitude Longitude Altitude Speed Heading
2026-04-27 17:04 34.71368 32.48815 45 ft 0 kts 155°
2026-04-27 17:23 34.71386 32.48804 43 ft 4 kts 152°
2026-04-27 17:23 34.71410 32.48790 45 ft 4 kts 153°
2026-04-27 17:23 34.71430 32.48771 45 ft 4 kts 115°
2026-04-27 17:24 34.71433 32.48743 45 ft 3 kts 67°
2026-04-27 17:24 34.71432 32.48739 45 ft 1 kts 65°
2026-04-27 17:26 34.71435 32.48748 44 ft 5 kts 65°
2026-04-27 17:26 34.71463 32.48820 45 ft 13 kts 65°
2026-04-27 17:26 34.71504 32.48927 45 ft 14 kts 65°
2026-04-27 17:26 34.71578 32.48992 46 ft 13 kts 20°
2026-04-27 17:27 34.71638 32.49061 47 ft 13 kts 88°
2026-04-27 17:27 34.71605 32.49183 45 ft 19 kts 111°
2026-04-27 17:27 34.71550 32.49362 41 ft 25 kts 110°
2026-04-27 17:27 34.71496 32.49541 42 ft 20 kts 111°
2026-04-27 17:28 34.71447 32.49701 42 ft 18 kts 110°
2026-04-27 17:28 34.71382 32.49782 40 ft 12 kts 143°
2026-04-27 17:28 34.71418 32.49795 43 ft 0 kts 291°
2026-04-27 17:29 34.71418 32.49794 43 ft 1 kts 291°
2026-04-27 17:29 34.71450 32.49689 42 ft 41 kts 290°
2026-04-27 17:29 34.71633 32.49088 44 ft 109 kts 290°
2026-04-27 17:30 34.71970 32.48001 63 ft 162 kts 292°
2026-04-27 17:30 34.72575 32.45300 1360 ft 180 kts 261°
2026-04-27 17:30 34.72220 32.43735 1777 ft 206 kts 256°
2026-04-27 17:31 34.71811 32.41953 2055 ft 228 kts 256°
2026-04-27 17:31 34.71367 32.40037 2423 ft 247 kts 255°
2026-04-27 17:31 34.70892 32.37963 2991 ft 260 kts 255°
2026-04-27 17:31 34.70408 32.35832 3842 ft 263 kts 255°
2026-04-27 17:32 34.69915 32.33673 4684 ft 267 kts 255°
2026-04-27 17:32 34.68899 32.29242 6271 ft 277 kts 255°
2026-04-27 17:32 34.68373 32.26956 6985 ft 284 kts 255°
2026-04-27 17:33 34.67836 32.24625 7742 ft 289 kts 255°
2026-04-27 17:33 34.67289 32.22256 8501 ft 293 kts 255°
2026-04-27 17:33 34.66732 32.19850 9217 ft 299 kts 255°
2026-04-27 17:33 34.66176 32.17397 9944 ft 303 kts 258°
2026-04-27 17:34 34.66076 32.14855 10654 ft 303 kts 279°
2026-04-27 17:34 34.66694 32.12431 11386 ft 301 kts 298°
2026-04-27 17:34 34.67633 32.10145 12118 ft 304 kts 300°
2026-04-27 17:34 34.68618 32.07859 12813 ft 307 kts 300°
2026-04-27 17:35 34.69619 32.05549 13437 ft 314 kts 300°
2026-04-27 17:35 34.70668 32.03116 13622 ft 335 kts 300°
2026-04-27 17:35 34.71761 32.00557 14084 ft 345 kts 299°
2026-04-27 17:35 34.72863 31.97951 14787 ft 348 kts 299°
2026-04-27 17:36 34.73961 31.95333 15536 ft 348 kts 299°
2026-04-27 17:36 34.75060 31.92703 16225 ft 350 kts 299°
2026-04-27 17:36 34.76165 31.90052 16862 ft 353 kts 298°
2026-04-27 17:36 34.77278 31.87376 17484 ft 356 kts 298°
2026-04-27 17:37 34.78400 31.84675 18103 ft 359 kts 298°
2026-04-27 17:37 34.79528 31.81956 18705 ft 361 kts 298°
2026-04-27 17:37 34.80662 31.79219 19309 ft 363 kts 298°
2026-04-27 17:37 34.81804 31.76460 19862 ft 367 kts 298°
2026-04-27 17:38 34.82955 31.73676 20418 ft 369 kts 298°
2026-04-27 17:38 34.84113 31.70872 20968 ft 372 kts 298°
2026-04-27 17:38 34.85278 31.68049 21506 ft 375 kts 298°
2026-04-27 17:38 34.86449 31.65210 22039 ft 377 kts 298°
2026-04-27 17:39 34.87629 31.62349 22539 ft 379 kts 298°
2026-04-27 17:39 34.88814 31.59469 23041 ft 382 kts 298°
2026-04-27 17:39 34.90007 31.56570 23499 ft 384 kts 298°
2026-04-27 17:39 34.91208 31.53649 23960 ft 386 kts 298°
2026-04-27 17:40 34.92415 31.50712 24423 ft 389 kts 298°
2026-04-27 17:40 34.93628 31.47758 24873 ft 391 kts 298°
2026-04-27 17:40 34.94845 31.44788 25302 ft 393 kts 298°
2026-04-27 17:40 34.96071 31.41795 25732 ft 395 kts 298°
2026-04-27 17:41 34.97284 31.38833 26151 ft 397 kts 298°
2026-04-27 17:41 34.98520 31.35811 26565 ft 399 kts 298°
2026-04-27 17:41 34.99759 31.32777 26970 ft 400 kts 298°
2026-04-27 17:41 35.01003 31.29729 27338 ft 403 kts 298°
2026-04-27 17:42 35.02253 31.26664 27695 ft 405 kts 298°
2026-04-27 17:42 35.03506 31.23586 28070 ft 406 kts 297°
2026-04-27 17:42 35.04764 31.20495 28405 ft 408 kts 297°
2026-04-27 17:42 35.06027 31.17387 28738 ft 410 kts 297°
2026-04-27 17:43 35.07296 31.14262 29077 ft 411 kts 297°
2026-04-27 17:43 35.08568 31.11128 29410 ft 412 kts 297°
2026-04-27 17:43 35.09844 31.07985 29708 ft 414 kts 297°
2026-04-27 17:43 35.11125 31.04825 29989 ft 417 kts 297°
2026-04-27 17:44 35.12411 31.01647 30275 ft 418 kts 297°
2026-04-27 17:44 35.13702 30.98456 30553 ft 420 kts 297°
2026-04-27 17:44 35.14995 30.95254 30832 ft 421 kts 297°
2026-04-27 17:44 35.16291 30.92041 31105 ft 422 kts 297°
2026-04-27 17:45 35.17589 30.88821 31352 ft 423 kts 297°
2026-04-27 17:45 35.18892 30.85586 31567 ft 425 kts 297°
2026-04-27 17:45 35.20200 30.82336 31806 ft 427 kts 297°
2026-04-27 17:45 35.21510 30.79077 32042 ft 428 kts 297°
2026-04-27 17:46 35.22825 30.75803 32269 ft 429 kts 297°
2026-04-27 17:46 35.24143 30.72520 32496 ft 431 kts 296°
2026-04-27 17:46 35.25462 30.69227 32733 ft 431 kts 296°
2026-04-27 17:46 35.26784 30.65929 32956 ft 432 kts 296°
2026-04-27 17:47 35.28107 30.62622 33186 ft 433 kts 296°
2026-04-27 17:47 35.28981 30.60431 33366 ft 432 kts 296°
2026-04-27 17:47 35.30743 30.56018 33752 ft 430 kts 296°
2026-04-27 17:47 35.32053 30.52733 34073 ft 428 kts 296°
2026-04-27 17:48 35.33357 30.49461 34322 ft 428 kts 296°
2026-04-27 17:48 35.34662 30.46180 34522 ft 428 kts 296°
2026-04-27 17:48 35.35964 30.42905 34768 ft 427 kts 296°
2026-04-27 17:48 35.37262 30.39637 35023 ft 426 kts 296°
2026-04-27 17:49 35.38120 30.37473 35186 ft 426 kts 296°
2026-04-27 17:49 35.39414 30.34211 35392 ft 426 kts 296°
2026-04-27 17:49 35.40706 30.30949 35584 ft 426 kts 296°
2026-04-27 17:49 35.41996 30.27688 35818 ft 425 kts 295°
2026-04-27 17:50 35.43284 30.24431 35992 ft 425 kts 295°
2026-04-27 17:50 35.46096 30.18002 35984 ft 431 kts 306°
2026-04-27 17:50 35.48037 30.15196 35992 ft 432 kts 314°
2026-04-27 17:51 35.52400 30.10118 35991 ft 432 kts 315°
2026-04-27 17:51 35.56773 30.05061 35991 ft 431 kts 315°
2026-04-27 17:52 35.61113 29.99977 35993 ft 431 kts 315°
2026-04-27 17:52 35.65439 29.94870 35989 ft 431 kts 314°
2026-04-27 17:53 35.69725 29.89793 35996 ft 431 kts 314°
2026-04-27 17:53 35.74038 29.84677 35987 ft 431 kts 314°
2026-04-27 17:54 35.78347 29.79558 35993 ft 430 kts 314°
2026-04-27 17:54 35.82658 29.74428 35991 ft 431 kts 314°
2026-04-27 17:55 35.86974 29.69285 35989 ft 431 kts 314°
2026-04-27 17:55 35.91283 29.64140 35988 ft 431 kts 314°
2026-04-27 17:56 35.95589 29.58993 35992 ft 431 kts 314°
2026-04-27 17:56 35.99890 29.53844 35990 ft 431 kts 314°
2026-04-27 17:57 36.04191 29.48684 35993 ft 431 kts 314°
2026-04-27 17:57 36.08487 29.43523 35992 ft 431 kts 314°
2026-04-27 17:58 36.12779 29.38359 35993 ft 431 kts 314°
2026-04-27 17:58 36.17073 29.33183 35991 ft 431 kts 314°
2026-04-27 17:59 36.21526 29.28211 35996 ft 432 kts 319°
2026-04-27 17:59 36.26162 29.23477 36004 ft 432 kts 319°
2026-04-27 18:00 36.30773 29.18691 36003 ft 432 kts 318°
2026-04-27 18:00 36.35362 29.13867 36001 ft 433 kts 318°
2026-04-27 18:01 36.39947 29.09028 36000 ft 433 kts 318°
2026-04-27 18:01 36.44536 29.04179 35995 ft 433 kts 318°
2026-04-27 18:02 36.49127 28.99321 35989 ft 434 kts 318°
2026-04-27 18:02 36.53716 28.94458 35993 ft 433 kts 318°
2026-04-27 18:03 36.58302 28.89591 35991 ft 433 kts 318°
2026-04-27 18:03 36.62883 28.84723 35984 ft 433 kts 318°
2026-04-27 18:04 36.67460 28.79842 35991 ft 433 kts 318°
2026-04-27 18:04 36.72048 28.74969 35989 ft 434 kts 318°
2026-04-27 18:05 36.76648 28.70105 35995 ft 434 kts 318°
2026-04-27 18:05 36.81250 28.65229 35991 ft 434 kts 318°
2026-04-27 18:06 36.85821 28.60377 35983 ft 434 kts 318°
2026-04-27 18:06 36.90412 28.55490 35988 ft 434 kts 318°
2026-04-27 18:07 36.94997 28.50600 36000 ft 434 kts 318°
2026-04-27 18:07 36.99588 28.45700 35998 ft 434 kts 318°
2026-04-27 18:08 37.04175 28.40793 35990 ft 434 kts 318°
2026-04-27 18:08 37.08759 28.35875 35974 ft 434 kts 318°
2026-04-27 18:09 37.13307 28.30908 35980 ft 433 kts 317°
2026-04-27 18:09 37.17860 28.25949 35985 ft 433 kts 318°
2026-04-27 18:10 37.22445 28.21042 35986 ft 433 kts 318°
2026-04-27 18:10 37.27032 28.16122 35983 ft 434 kts 318°
2026-04-27 18:11 37.31613 28.11184 35972 ft 434 kts 318°
2026-04-27 18:11 37.36177 28.06200 35969 ft 435 kts 317°
2026-04-27 18:12 37.40734 28.01205 35975 ft 435 kts 317°
2026-04-27 18:12 37.45303 27.96193 36008 ft 438 kts 317°
2026-04-27 18:13 37.47604 27.93668 36180 ft 438 kts 317°
2026-04-27 18:13 37.49894 27.91153 36409 ft 437 kts 317°
2026-04-27 18:13 37.52186 27.88634 36590 ft 437 kts 317°
2026-04-27 18:13 37.54471 27.86122 36835 ft 435 kts 317°
2026-04-27 18:14 37.56729 27.83637 37266 ft 428 kts 317°
2026-04-27 18:14 37.58955 27.81185 37583 ft 424 kts 317°
2026-04-27 18:14 37.63418 27.76259 37718 ft 428 kts 317°
2026-04-27 18:15 37.65641 27.73803 37999 ft 424 kts 316°
2026-04-27 18:15 37.67868 27.71340 37955 ft 426 kts 316°
2026-04-27 18:15 37.72297 27.66437 37966 ft 421 kts 316°
2026-04-27 18:16 37.76681 27.61575 37963 ft 418 kts 316°
2026-04-27 18:16 37.81046 27.56725 37982 ft 415 kts 316°
2026-04-27 18:17 37.85378 27.51905 37981 ft 414 kts 316°
2026-04-27 18:17 37.89701 27.47092 37991 ft 414 kts 316°
2026-04-27 18:18 37.94058 27.42308 38000 ft 415 kts 317°
2026-04-27 18:18 37.98443 27.37501 38000 ft 418 kts 317°
2026-04-27 18:19 38.02850 27.32657 37998 ft 420 kts 317°
2026-04-27 18:19 38.07247 27.27810 38003 ft 423 kts 316°
2026-04-27 18:20 38.11694 27.22899 38005 ft 425 kts 316°
2026-04-27 18:20 38.16156 27.17967 38012 ft 426 kts 316°
2026-04-27 18:21 38.20623 27.13013 38019 ft 426 kts 316°
2026-04-27 18:21 38.25086 27.08059 38016 ft 426 kts 316°
2026-04-27 18:22 38.29537 27.03110 38015 ft 424 kts 316°
2026-04-27 18:22 38.33930 26.98119 38013 ft 422 kts 313°
2026-04-27 18:23 38.37969 26.92704 38025 ft 421 kts 310°
2026-04-27 18:23 38.41908 26.87201 38027 ft 420 kts 310°
2026-04-27 18:24 38.45860 26.81727 38032 ft 419 kts 310°
2026-04-27 18:24 38.49816 26.76296 38036 ft 417 kts 311°
2026-04-27 18:25 38.53776 26.70877 38046 ft 417 kts 311°
2026-04-27 18:25 38.57730 26.65464 38046 ft 416 kts 311°
2026-04-27 18:26 38.61674 26.60051 38057 ft 416 kts 311°
2026-04-27 18:26 38.65617 26.54630 38055 ft 416 kts 311°
2026-04-27 18:27 38.69561 26.49198 38063 ft 417 kts 310°
2026-04-27 18:27 38.73503 26.43757 38065 ft 417 kts 311°
2026-04-27 18:28 38.77449 26.38306 38067 ft 417 kts 310°
2026-04-27 18:28 38.81398 26.32837 38066 ft 418 kts 310°
2026-04-27 18:29 38.85354 26.27351 38067 ft 419 kts 310°
2026-04-27 18:29 38.89311 26.21854 38085 ft 420 kts 310°
2026-04-27 18:30 38.93272 26.16341 38095 ft 420 kts 310°
2026-04-27 18:30 38.97238 26.10812 38090 ft 421 kts 310°
2026-04-27 18:31 39.01207 26.05267 38096 ft 422 kts 310°
2026-04-27 18:31 39.05174 25.99717 38100 ft 421 kts 310°
2026-04-27 18:32 39.09108 25.94199 38107 ft 421 kts 310°
2026-04-27 18:32 39.13068 25.88643 38109 ft 421 kts 310°
2026-04-27 18:33 39.17020 25.83087 38123 ft 421 kts 310°
2026-04-27 18:33 39.20963 25.77528 38127 ft 420 kts 310°
2026-04-27 18:34 39.24900 25.71969 38128 ft 419 kts 310°
2026-04-27 18:34 39.28834 25.66410 38143 ft 418 kts 310°
2026-04-27 18:35 39.32753 25.60856 38134 ft 418 kts 310°
2026-04-27 18:35 39.36030 25.56203 38133 ft 418 kts 310°
2026-04-27 18:36 39.39937 25.50648 38138 ft 417 kts 310°
2026-04-27 18:36 39.43843 25.45087 38147 ft 418 kts 310°
2026-04-27 18:37 39.47718 25.39558 38151 ft 417 kts 310°
2026-04-27 18:37 39.51615 25.33986 38149 ft 418 kts 310°
2026-04-27 18:38 39.55515 25.28401 38135 ft 418 kts 310°
2026-04-27 18:38 39.59419 25.22801 38143 ft 419 kts 310°
2026-04-27 18:39 39.63324 25.17192 38129 ft 420 kts 310°
2026-04-27 18:39 39.67233 25.11560 38127 ft 420 kts 310°
2026-04-27 18:40 39.71143 25.05923 38129 ft 420 kts 310°
2026-04-27 18:40 39.75053 25.00276 38127 ft 420 kts 309°
2026-04-27 18:41 39.78960 24.94619 38129 ft 421 kts 309°
2026-04-27 18:41 39.82869 24.88949 38130 ft 421 kts 309°
2026-04-27 18:42 39.86118 24.84231 38133 ft 421 kts 309°
2026-04-27 18:42 39.90684 24.77584 38130 ft 421 kts 309°
2026-04-27 18:43 39.94588 24.71892 38139 ft 421 kts 309°
2026-04-27 18:43 39.98489 24.66191 38153 ft 421 kts 309°
2026-04-27 18:44 40.02394 24.60478 38146 ft 422 kts 309°
2026-04-27 18:44 40.06294 24.54761 38133 ft 422 kts 309°
2026-04-27 18:45 40.10189 24.49038 38152 ft 421 kts 309°
2026-04-27 18:45 40.14053 24.43349 38144 ft 421 kts 309°
2026-04-27 18:46 40.17961 24.37586 38149 ft 421 kts 309°
2026-04-27 18:46 40.21811 24.31897 38156 ft 420 kts 309°
2026-04-27 18:47 40.25683 24.26166 38152 ft 420 kts 309°
2026-04-27 18:47 40.29551 24.20430 38152 ft 420 kts 309°
2026-04-27 18:48 40.33414 24.14689 38161 ft 420 kts 309°
2026-04-27 18:48 40.37281 24.08932 38154 ft 421 kts 309°
2026-04-27 18:49 40.41147 24.03166 38161 ft 421 kts 309°
2026-04-27 18:49 40.45012 23.97391 38154 ft 421 kts 309°
2026-04-27 18:50 40.48877 23.91603 38160 ft 421 kts 309°
2026-04-27 18:50 40.52736 23.85813 38155 ft 421 kts 309°
2026-04-27 18:51 40.56591 23.80024 38166 ft 421 kts 309°
2026-04-27 18:51 40.60441 23.74228 38166 ft 421 kts 309°
2026-04-27 18:52 40.64288 23.68425 38164 ft 421 kts 309°
2026-04-27 18:53 40.70054 23.59712 38176 ft 420 kts 309°
2026-04-27 18:53 40.73861 23.53938 38179 ft 419 kts 309°
2026-04-27 18:54 40.77683 23.48133 38173 ft 419 kts 309°
2026-04-27 18:54 40.81498 23.42328 38173 ft 418 kts 309°
2026-04-27 18:55 40.85302 23.36528 38177 ft 417 kts 309°
2026-04-27 18:55 40.89100 23.30727 38175 ft 417 kts 309°
2026-04-27 18:56 40.92890 23.24928 38177 ft 417 kts 309°
2026-04-27 18:56 40.96674 23.19126 38173 ft 416 kts 309°
2026-04-27 18:57 41.00449 23.13327 38170 ft 415 kts 309°
2026-04-27 18:57 41.04211 23.07535 38180 ft 415 kts 309°
2026-04-27 18:58 41.07974 23.01734 38174 ft 415 kts 309°
2026-04-27 18:58 41.11733 22.95926 38164 ft 415 kts 309°
2026-04-27 18:59 41.15484 22.90117 38172 ft 415 kts 309°
2026-04-27 18:59 41.19235 22.84299 38169 ft 414 kts 308°
2026-04-27 19:00 41.22981 22.78479 38173 ft 415 kts 308°
2026-04-27 19:00 41.26730 22.72730 38168 ft 414 kts 310°
2026-04-27 19:01 41.30617 22.67072 38170 ft 415 kts 310°
2026-04-27 19:01 41.34519 22.61419 38166 ft 414 kts 310°
2026-04-27 19:02 41.38401 22.55752 38165 ft 414 kts 310°
2026-04-27 19:02 41.42276 22.50065 38168 ft 414 kts 310°
2026-04-27 19:03 41.46140 22.44373 38163 ft 414 kts 310°
2026-04-27 19:03 41.50002 22.38673 38158 ft 414 kts 310°
2026-04-27 19:04 41.53863 22.32964 38156 ft 414 kts 310°
2026-04-27 19:04 41.57719 22.27252 38153 ft 414 kts 310°
2026-04-27 19:05 41.61575 22.21530 38151 ft 414 kts 310°
2026-04-27 19:05 41.65428 22.15802 38151 ft 414 kts 310°
2026-04-27 19:06 41.69273 22.10074 38149 ft 414 kts 310°
2026-04-27 19:06 41.73114 22.04339 38134 ft 413 kts 310°
2026-04-27 19:07 41.76945 21.98609 38142 ft 413 kts 310°
2026-04-27 19:07 41.80773 21.92871 38130 ft 413 kts 310°
2026-04-27 19:08 41.84598 21.87126 38131 ft 413 kts 310°
2026-04-27 19:08 41.88420 21.81379 38128 ft 413 kts 310°
2026-04-27 19:09 41.92207 21.75670 38129 ft 413 kts 310°
2026-04-27 19:09 41.96026 21.69899 38126 ft 413 kts 310°
2026-04-27 19:10 41.99841 21.64125 38131 ft 413 kts 310°
2026-04-27 19:10 42.03656 21.58345 38133 ft 413 kts 310°
2026-04-27 19:11 42.07465 21.52559 38128 ft 413 kts 310°
2026-04-27 19:11 42.11270 21.46766 38131 ft 413 kts 310°
2026-04-27 19:12 42.15072 21.40969 38126 ft 413 kts 310°
2026-04-27 19:12 42.18835 21.35125 38130 ft 413 kts 309°
2026-04-27 19:13 42.22550 21.29219 38127 ft 413 kts 309°
2026-04-27 19:13 42.26264 21.23302 38130 ft 413 kts 309°
2026-04-27 19:14 42.29979 21.17384 38127 ft 413 kts 309°
2026-04-27 19:14 42.33698 21.11459 38145 ft 413 kts 309°
2026-04-27 19:15 42.37407 21.05535 38151 ft 413 kts 309°
2026-04-27 19:15 42.41115 20.99604 38147 ft 413 kts 309°
2026-04-27 19:16 42.44822 20.93661 38157 ft 413 kts 309°
2026-04-27 19:16 42.48531 20.87703 38162 ft 414 kts 309°
2026-04-27 19:17 42.52241 20.81735 38166 ft 415 kts 309°
2026-04-27 19:17 42.55957 20.75740 38158 ft 416 kts 309°
2026-04-27 19:18 42.59675 20.69732 38142 ft 416 kts 309°
2026-04-27 19:18 42.63392 20.63720 38145 ft 416 kts 309°
2026-04-27 19:19 42.67100 20.57701 38157 ft 415 kts 309°
2026-04-27 19:19 42.70804 20.51675 38151 ft 415 kts 309°
2026-04-27 19:20 42.74500 20.45654 38133 ft 415 kts 309°
2026-04-27 19:20 42.78164 20.39670 38134 ft 414 kts 309°
2026-04-27 19:21 42.81845 20.33652 38143 ft 413 kts 309°
2026-04-27 19:21 42.85650 20.27803 38133 ft 413 kts 313°
2026-04-27 19:22 42.89746 20.22286 38126 ft 414 kts 314°
2026-04-27 19:22 42.93864 20.16805 38138 ft 414 kts 314°
2026-04-27 19:23 42.97961 20.11279 38131 ft 414 kts 314°
2026-04-27 19:23 43.02036 20.05726 38121 ft 414 kts 314°
2026-04-27 19:24 43.05418 20.01093 38118 ft 414 kts 314°
2026-04-27 19:24 43.09479 19.95518 38121 ft 414 kts 314°
2026-04-27 19:25 43.13543 19.89931 38120 ft 414 kts 314°
2026-04-27 19:25 43.17604 19.84335 38123 ft 414 kts 314°
2026-04-27 19:26 43.21667 19.78727 38116 ft 415 kts 314°
2026-04-27 19:26 43.25729 19.73109 38118 ft 415 kts 314°
2026-04-27 19:27 43.29788 19.67483 38120 ft 415 kts 314°
2026-04-27 19:27 43.33847 19.61845 38118 ft 415 kts 314°
2026-04-27 19:28 43.37894 19.56215 38120 ft 414 kts 314°
2026-04-27 19:28 43.41933 19.50582 38122 ft 413 kts 314°
2026-04-27 19:29 43.45964 19.44952 38122 ft 413 kts 314°
2026-04-27 19:29 43.49987 19.39321 38114 ft 413 kts 314°
2026-04-27 19:30 43.54010 19.33679 38115 ft 412 kts 314°
2026-04-27 19:30 43.58027 19.28033 38125 ft 413 kts 314°
2026-04-27 19:31 43.62047 19.22375 38117 ft 413 kts 314°
2026-04-27 19:31 43.66064 19.16706 38119 ft 413 kts 314°
2026-04-27 19:32 43.70082 19.11019 38113 ft 414 kts 314°
2026-04-27 19:32 43.74101 19.05323 38114 ft 414 kts 314°
2026-04-27 19:33 43.78092 18.99657 38121 ft 414 kts 314°
2026-04-27 19:33 43.82114 18.93933 38118 ft 415 kts 314°
2026-04-27 19:34 43.86131 18.88206 38126 ft 415 kts 314°
2026-04-27 19:34 43.90142 18.82472 38128 ft 415 kts 314°
2026-04-27 19:35 43.94155 18.76728 38126 ft 415 kts 314°
2026-04-27 19:35 43.98162 18.70983 38127 ft 414 kts 314°
2026-04-27 19:36 44.02170 18.65221 38133 ft 415 kts 314°
2026-04-27 19:36 44.06178 18.59444 38124 ft 415 kts 314°
2026-04-27 19:37 44.10174 18.53674 38131 ft 415 kts 314°
2026-04-27 19:37 44.14172 18.47891 38125 ft 414 kts 314°
2026-04-27 19:38 44.18163 18.42106 38134 ft 414 kts 314°
2026-04-27 19:38 44.22161 18.36296 38127 ft 415 kts 314°
2026-04-27 19:39 44.26149 18.30490 38129 ft 415 kts 314°
2026-04-27 19:39 44.30130 18.24682 38132 ft 414 kts 314°
2026-04-27 19:40 44.34118 18.18854 38127 ft 414 kts 314°
2026-04-27 19:40 44.38091 18.13032 38121 ft 413 kts 314°
2026-04-27 19:41 44.42055 18.07215 38131 ft 413 kts 314°
2026-04-27 19:41 44.46018 18.01387 38129 ft 413 kts 314°
2026-04-27 19:42 44.49976 17.95553 38129 ft 413 kts 314°
2026-04-27 19:42 44.53902 17.89752 38126 ft 413 kts 314°
2026-04-27 19:43 44.57882 17.83859 38130 ft 413 kts 314°
2026-04-27 19:43 44.61807 17.78035 38130 ft 414 kts 314°
2026-04-27 19:44 44.65780 17.72129 38132 ft 413 kts 313°
2026-04-27 19:44 44.69696 17.66295 38128 ft 414 kts 313°
2026-04-27 19:45 44.73669 17.60364 38146 ft 413 kts 313°
2026-04-27 19:45 44.77571 17.54523 38156 ft 413 kts 313°
2026-04-27 19:46 44.81501 17.48630 38151 ft 412 kts 313°
2026-04-27 19:46 44.85426 17.42734 38157 ft 412 kts 313°
2026-04-27 19:47 44.89337 17.36843 38153 ft 411 kts 313°
2026-04-27 19:47 44.93247 17.30943 38161 ft 411 kts 313°
2026-04-27 19:48 44.97144 17.25049 38161 ft 411 kts 313°
2026-04-27 19:48 45.01037 17.19148 38154 ft 410 kts 313°
2026-04-27 19:49 45.04923 17.13246 38161 ft 410 kts 313°
2026-04-27 19:49 45.08957 17.07551 38163 ft 410 kts 317°
2026-04-27 19:50 45.13165 17.02111 38158 ft 410 kts 317°
2026-04-27 19:50 45.17349 16.96707 38160 ft 410 kts 317°
2026-04-27 19:51 45.21552 16.91226 38149 ft 410 kts 317°
2026-04-27 19:51 45.25742 16.85729 38149 ft 410 kts 317°
2026-04-27 19:52 45.29932 16.80216 38146 ft 411 kts 317°
2026-04-27 19:52 45.34114 16.74695 38151 ft 411 kts 317°
2026-04-27 19:53 45.40381 16.66399 38134 ft 410 kts 317°
2026-04-27 19:53 45.44557 16.60861 38141 ft 410 kts 317°
2026-04-27 19:54 45.48728 16.55317 38138 ft 410 kts 317°
2026-04-27 19:54 45.52889 16.49773 38136 ft 410 kts 317°
2026-04-27 19:55 45.57050 16.44218 38138 ft 410 kts 317°
2026-04-27 19:55 45.61208 16.38656 38127 ft 409 kts 317°
2026-04-27 19:56 45.65353 16.33099 38130 ft 409 kts 317°
2026-04-27 19:56 45.69493 16.27537 38128 ft 408 kts 317°
2026-04-27 19:57 45.73626 16.21971 38128 ft 408 kts 317°
2026-04-27 19:57 45.77752 16.16406 38130 ft 407 kts 317°
2026-04-27 19:58 45.81864 16.10849 38129 ft 406 kts 316°
2026-04-27 19:58 45.85973 16.05280 38129 ft 406 kts 316°
2026-04-27 19:59 45.90074 15.99708 38133 ft 406 kts 316°
2026-04-27 19:59 45.94174 15.94127 38149 ft 405 kts 316°
2026-04-27 20:00 45.98264 15.88547 38149 ft 406 kts 316°
2026-04-27 20:00 46.02355 15.82956 38147 ft 406 kts 316°
2026-04-27 20:01 46.06447 15.77352 38151 ft 406 kts 316°
2026-04-27 20:01 46.10514 15.71769 38154 ft 406 kts 316°
2026-04-27 20:02 46.14605 15.66143 38158 ft 406 kts 316°
2026-04-27 20:02 46.18746 15.60591 38161 ft 407 kts 319°
2026-04-27 20:03 46.23089 15.55348 38159 ft 407 kts 320°
2026-04-27 20:03 46.27464 15.50148 38162 ft 408 kts 320°
2026-04-27 20:04 46.31830 15.44909 38154 ft 408 kts 320°
2026-04-27 20:04 46.35450 15.40532 38153 ft 408 kts 320°
2026-04-27 20:05 46.40530 15.34365 38153 ft 407 kts 319°
2026-04-27 20:05 46.44867 15.29079 38156 ft 406 kts 319°
2026-04-27 20:06 46.49188 15.23800 38156 ft 406 kts 319°
2026-04-27 20:06 46.53503 15.18521 38156 ft 406 kts 319°
2026-04-27 20:07 46.57818 15.13231 38155 ft 406 kts 319°
2026-04-27 20:07 46.62130 15.07933 38157 ft 406 kts 319°
2026-04-27 20:08 46.66436 15.02630 38156 ft 405 kts 319°
2026-04-27 20:08 46.70734 14.97328 38151 ft 405 kts 319°
2026-04-27 20:09 46.75028 14.92014 38154 ft 405 kts 319°
2026-04-27 20:09 46.79326 14.86686 38148 ft 406 kts 319°
2026-04-27 20:10 46.82907 14.82243 38148 ft 406 kts 319°
2026-04-27 20:10 46.87899 14.76030 38153 ft 406 kts 319°
2026-04-27 20:11 46.92190 14.70673 38142 ft 405 kts 319°
2026-04-27 20:11 46.96474 14.65315 38145 ft 405 kts 319°
2026-04-27 20:12 47.00061 14.60823 38143 ft 405 kts 319°
2026-04-27 20:12 47.04345 14.55448 38159 ft 406 kts 318°
2026-04-27 20:13 47.08629 14.50057 38153 ft 406 kts 318°
2026-04-27 20:13 47.12913 14.44655 38158 ft 406 kts 318°
2026-04-27 20:14 47.17199 14.39238 38151 ft 407 kts 318°
2026-04-27 20:14 47.21483 14.33813 38154 ft 406 kts 318°
2026-04-27 20:15 47.25760 14.28384 38155 ft 406 kts 318°
2026-04-27 20:15 47.30033 14.22949 38152 ft 405 kts 318°
2026-04-27 20:16 47.34298 14.17514 38165 ft 405 kts 317°
2026-04-27 20:16 47.38556 14.12068 38160 ft 405 kts 317°
2026-04-27 20:17 47.42807 14.06625 38169 ft 404 kts 317°
2026-04-27 20:17 47.47050 14.01183 38165 ft 404 kts 317°
2026-04-27 20:18 47.51290 13.95732 38150 ft 404 kts 317°
2026-04-27 20:18 47.55527 13.90269 38154 ft 404 kts 317°
2026-04-27 20:19 47.59762 13.84797 38153 ft 404 kts 317°
2026-04-27 20:19 47.63994 13.79316 38154 ft 404 kts 317°
2026-04-27 20:20 47.68226 13.73826 38160 ft 404 kts 317°
2026-04-27 20:20 47.72456 13.68324 38156 ft 404 kts 317°
2026-04-27 20:21 47.76688 13.62806 38159 ft 405 kts 317°
2026-04-27 20:21 47.80913 13.57286 38158 ft 404 kts 317°
2026-04-27 20:22 47.85109 13.51792 38153 ft 404 kts 317°
2026-04-27 20:22 47.89324 13.46259 38154 ft 404 kts 317°
2026-04-27 20:23 47.93534 13.40721 38153 ft 403 kts 317°
2026-04-27 20:23 47.97738 13.35177 38160 ft 403 kts 317°
2026-04-27 20:24 48.01935 13.29632 38163 ft 403 kts 316°
2026-04-27 20:24 48.06130 13.24076 38159 ft 403 kts 316°
2026-04-27 20:25 48.10319 13.18514 38159 ft 403 kts 316°
2026-04-27 20:25 48.14510 13.12939 38157 ft 403 kts 316°
2026-04-27 20:26 48.18689 13.07368 38157 ft 402 kts 316°
2026-04-27 20:26 48.22864 13.01792 38149 ft 402 kts 317°
2026-04-27 20:27 48.27217 12.96516 38160 ft 403 kts 320°
2026-04-27 20:27 48.31662 12.91393 38158 ft 403 kts 320°
2026-04-27 20:28 48.36098 12.86260 38156 ft 402 kts 320°
2026-04-27 20:28 48.39768 12.81971 38149 ft 402 kts 319°
2026-04-27 20:29 48.44914 12.75916 38159 ft 402 kts 319°
2026-04-27 20:29 48.49313 12.70725 38153 ft 402 kts 319°
2026-04-27 20:30 48.53711 12.65528 38147 ft 402 kts 319°
2026-04-27 20:30 48.58103 12.60319 38158 ft 402 kts 319°
2026-04-27 20:31 48.62497 12.55098 38150 ft 402 kts 319°
2026-04-27 20:31 48.66892 12.49867 38161 ft 402 kts 319°
2026-04-27 20:32 48.71284 12.44622 38162 ft 402 kts 319°
2026-04-27 20:32 48.75672 12.39371 38160 ft 402 kts 319°
2026-04-27 20:33 48.80057 12.34114 38159 ft 402 kts 319°
2026-04-27 20:33 48.84442 12.28843 38157 ft 402 kts 319°
2026-04-27 20:34 48.88819 12.23569 38153 ft 402 kts 319°
2026-04-27 20:34 48.93194 12.18286 38161 ft 401 kts 319°
2026-04-27 20:35 48.97563 12.12997 38161 ft 402 kts 319°
2026-04-27 20:35 49.01935 12.07695 38155 ft 402 kts 319°
2026-04-27 20:36 49.06306 12.02382 38156 ft 402 kts 319°
2026-04-27 20:36 49.10675 11.97059 38153 ft 402 kts 318°
2026-04-27 20:37 49.15042 11.91725 38159 ft 402 kts 318°
2026-04-27 20:37 49.19407 11.86382 38156 ft 402 kts 318°
2026-04-27 20:38 49.23768 11.81027 38156 ft 402 kts 318°
2026-04-27 20:38 49.28095 11.75703 38163 ft 402 kts 318°
2026-04-27 20:39 49.32455 11.70328 38162 ft 403 kts 318°
2026-04-27 20:39 49.36815 11.64945 38159 ft 403 kts 318°
2026-04-27 20:40 49.41177 11.59539 38154 ft 403 kts 318°
2026-04-27 20:40 49.45539 11.54122 38156 ft 403 kts 318°
2026-04-27 20:41 49.49903 11.48688 38157 ft 404 kts 318°
2026-04-27 20:41 49.54267 11.43243 38158 ft 405 kts 318°
2026-04-27 20:42 49.58635 11.37718 38454 ft 405 kts 317°
2026-04-27 20:42 49.60780 11.34918 38699 ft 403 kts 317°
2026-04-27 20:42 49.62910 11.32111 38887 ft 403 kts 316°
2026-04-27 20:43 49.65039 11.29301 39032 ft 403 kts 316°
2026-04-27 20:43 49.67174 11.26485 39163 ft 404 kts 317°
2026-04-27 20:43 49.69313 11.23669 39272 ft 405 kts 317°
2026-04-27 20:43 49.71457 11.20844 39367 ft 406 kts 317°
2026-04-27 20:44 49.73610 11.18006 39482 ft 407 kts 317°
2026-04-27 20:44 49.75760 11.15167 39657 ft 406 kts 317°
2026-04-27 20:44 49.80070 11.09470 39849 ft 409 kts 317°
2026-04-27 20:45 49.82230 11.06612 39998 ft 408 kts 317°
2026-04-27 20:45 49.84383 11.03760 40148 ft 407 kts 317°
2026-04-27 20:45 49.88712 10.98011 40177 ft 412 kts 317°
2026-04-27 20:46 49.93081 10.92197 40181 ft 416 kts 317°
2026-04-27 20:46 49.97491 10.86312 40175 ft 420 kts 317°
2026-04-27 20:47 50.01930 10.80374 40167 ft 422 kts 317°
2026-04-27 20:47 50.06380 10.74409 40175 ft 422 kts 317°
2026-04-27 20:48 50.09913 10.69195 40171 ft 420 kts 311°
2026-04-27 20:48 50.14530 10.61462 40169 ft 419 kts 311°
2026-04-27 20:49 50.18524 10.54883 40172 ft 417 kts 311°
2026-04-27 20:49 50.22473 10.48290 40181 ft 415 kts 311°
2026-04-27 20:50 50.26481 10.41826 40179 ft 413 kts 312°
2026-04-27 20:50 50.30508 10.35433 40186 ft 412 kts 312°
2026-04-27 20:51 50.34503 10.29030 40181 ft 411 kts 312°
2026-04-27 20:51 50.38364 10.22472 40198 ft 409 kts 309°
2026-04-27 20:52 50.42078 10.15722 40197 ft 409 kts 309°
2026-04-27 20:52 50.45799 10.08966 40199 ft 409 kts 309°
2026-04-27 20:53 50.49537 10.02219 40199 ft 410 kts 309°
2026-04-27 20:53 50.53290 9.95452 40196 ft 412 kts 309°
2026-04-27 20:54 50.58940 9.85233 40204 ft 414 kts 309°
2026-04-27 20:55 50.62720 9.78371 40197 ft 415 kts 309°
2026-04-27 20:55 50.65869 9.72642 40196 ft 417 kts 309°
2026-04-27 20:56 50.69663 9.65723 40196 ft 418 kts 309°
2026-04-27 20:56 50.73458 9.58776 40204 ft 418 kts 308°
2026-04-27 20:57 50.77179 9.51709 40204 ft 418 kts 307°
2026-04-27 20:57 50.80871 9.44593 40202 ft 418 kts 307°
2026-04-27 20:58 50.84563 9.37477 40198 ft 419 kts 308°
2026-04-27 20:58 50.88258 9.30354 40203 ft 418 kts 307°
2026-04-27 20:59 50.91946 9.23234 40212 ft 418 kts 307°
2026-04-27 20:59 50.95626 9.16106 40210 ft 417 kts 307°
2026-04-27 21:00 50.99296 9.08979 40212 ft 417 kts 307°
2026-04-27 21:00 51.02960 9.01845 40211 ft 416 kts 307°
2026-04-27 21:01 51.06615 8.94705 40214 ft 416 kts 307°
2026-04-27 21:01 51.10264 8.87562 40212 ft 416 kts 307°
2026-04-27 21:02 51.13943 8.80435 40208 ft 417 kts 310°
2026-04-27 21:02 51.17956 8.73756 40210 ft 418 kts 312°
2026-04-27 21:03 51.22032 8.67153 40211 ft 418 kts 312°
2026-04-27 21:03 51.26096 8.60515 40212 ft 418 kts 312°
2026-04-27 21:04 51.30120 8.53883 40215 ft 418 kts 311°
2026-04-27 21:04 51.34162 8.47184 40213 ft 419 kts 311°
2026-04-27 21:05 51.38209 8.40455 40214 ft 420 kts 311°
2026-04-27 21:05 51.42260 8.33703 40215 ft 421 kts 311°
2026-04-27 21:06 51.46313 8.26928 40211 ft 421 kts 311°
2026-04-27 21:06 51.50371 8.20128 40214 ft 422 kts 311°
2026-04-27 21:07 51.54434 8.13301 40214 ft 423 kts 311°
2026-04-27 21:07 51.58499 8.06451 40210 ft 424 kts 311°
2026-04-27 21:08 51.62566 7.99578 40213 ft 424 kts 311°
2026-04-27 21:08 51.66628 7.92694 40219 ft 424 kts 311°
2026-04-27 21:09 51.70684 7.85802 40220 ft 424 kts 311°
2026-04-27 21:09 51.74744 7.78884 40223 ft 424 kts 311°
2026-04-27 21:10 51.78795 7.71960 40183 ft 425 kts 311°
2026-04-27 21:10 51.80842 7.68455 39697 ft 431 kts 311°
2026-04-27 21:10 51.82895 7.64933 39129 ft 429 kts 311°
2026-04-27 21:10 51.84937 7.61428 38609 ft 426 kts 310°
2026-04-27 21:11 51.86963 7.57940 38021 ft 425 kts 310°
2026-04-27 21:11 51.88982 7.54466 37439 ft 423 kts 310°
2026-04-27 21:11 51.90986 7.51012 36860 ft 421 kts 310°
2026-04-27 21:11 51.92985 7.47560 36275 ft 418 kts 309°
2026-04-27 21:12 51.94975 7.44121 35630 ft 418 kts 309°
2026-04-27 21:12 51.96961 7.40679 34977 ft 418 kts 309°
2026-04-27 21:12 51.98948 7.37232 34332 ft 418 kts 308°
2026-04-27 21:12 52.00935 7.33782 33660 ft 418 kts 308°
2026-04-27 21:13 52.02916 7.30337 32980 ft 418 kts 308°
2026-04-27 21:13 52.04897 7.26889 32417 ft 415 kts 308°
2026-04-27 21:13 52.06849 7.23488 31945 ft 410 kts 308°
2026-04-27 21:13 52.08785 7.20108 31463 ft 406 kts 308°
2026-04-27 21:14 52.10698 7.16767 30989 ft 401 kts 308°
2026-04-27 21:14 52.12587 7.13457 30521 ft 397 kts 308°
2026-04-27 21:14 52.14456 7.10177 30061 ft 393 kts 308°
2026-04-27 21:14 52.16306 7.06927 29600 ft 389 kts 308°
2026-04-27 21:15 52.18137 7.03708 29121 ft 385 kts 309°
2026-04-27 21:15 52.19951 7.00515 28649 ft 382 kts 309°
2026-04-27 21:15 52.21746 6.97344 28186 ft 379 kts 308°
2026-04-27 21:15 52.23441 6.94097 27804 ft 373 kts 306°
2026-04-27 21:16 52.25060 6.90820 27435 ft 380 kts 306°
2026-04-27 21:16 52.26724 6.87414 27050 ft 387 kts 306°
2026-04-27 21:16 52.28419 6.83963 26645 ft 391 kts 306°
2026-04-27 21:16 52.30124 6.80525 26229 ft 388 kts 306°
2026-04-27 21:17 52.31817 6.77122 25831 ft 384 kts 307°
2026-04-27 21:17 52.33496 6.73746 25441 ft 381 kts 307°
2026-04-27 21:17 52.35159 6.70399 25054 ft 378 kts 307°
2026-04-27 21:17 52.36813 6.67067 24669 ft 376 kts 307°
2026-04-27 21:18 52.38459 6.63748 24284 ft 374 kts 307°
2026-04-27 21:18 52.40095 6.60442 23903 ft 373 kts 307°
2026-04-27 21:18 52.41723 6.57149 23521 ft 372 kts 307°
2026-04-27 21:18 52.43348 6.53858 23139 ft 371 kts 307°
2026-04-27 21:19 52.44968 6.50573 22763 ft 370 kts 307°
2026-04-27 21:19 52.46398 6.47104 22357 ft 367 kts 293°
2026-04-27 21:19 52.47114 6.43118 22003 ft 364 kts 277°
2026-04-27 21:20 52.47540 6.34863 21266 ft 363 kts 274°
2026-04-27 21:20 52.47711 6.30735 20890 ft 362 kts 274°
2026-04-27 21:20 52.47890 6.26613 20519 ft 363 kts 274°
2026-04-27 21:20 52.48079 6.22490 20144 ft 362 kts 274°
2026-04-27 21:21 52.48276 6.18381 19773 ft 361 kts 274°
2026-04-27 21:21 52.48475 6.14281 19400 ft 359 kts 274°
2026-04-27 21:21 52.48673 6.10206 19032 ft 357 kts 274°
2026-04-27 21:21 52.48868 6.06151 18669 ft 356 kts 274°
2026-04-27 21:22 52.49060 6.02111 18304 ft 355 kts 274°
2026-04-27 21:22 52.49249 5.98087 17939 ft 353 kts 274°
2026-04-27 21:22 52.49438 5.94075 17579 ft 352 kts 274°
2026-04-27 21:22 52.49624 5.90078 17215 ft 351 kts 274°
2026-04-27 21:23 52.49808 5.86101 16863 ft 349 kts 274°
2026-04-27 21:23 52.49991 5.82133 16505 ft 348 kts 274°
2026-04-27 21:23 52.50171 5.78179 16153 ft 347 kts 274°
2026-04-27 21:23 52.50349 5.74230 15794 ft 346 kts 274°
2026-04-27 21:24 52.50524 5.70355 15444 ft 345 kts 274°
2026-04-27 21:24 52.50699 5.66444 15090 ft 342 kts 274°
2026-04-27 21:24 52.50872 5.62579 14738 ft 337 kts 274°
2026-04-27 21:24 52.50997 5.58776 14388 ft 331 kts 267°
2026-04-27 21:25 52.50477 5.55149 14133 ft 323 kts 245°
2026-04-27 21:25 52.49417 5.51962 13953 ft 314 kts 239°
2026-04-27 21:25 52.48289 5.48936 13742 ft 307 kts 238°
2026-04-27 21:25 52.47173 5.45991 13543 ft 300 kts 238°
2026-04-27 21:26 52.46081 5.43099 13359 ft 297 kts 238°
2026-04-27 21:26 52.45001 5.40216 13176 ft 296 kts 238°
2026-04-27 21:26 52.43929 5.37344 12991 ft 295 kts 239°
2026-04-27 21:26 52.42866 5.34474 12805 ft 295 kts 239°
2026-04-27 21:27 52.41792 5.31607 12626 ft 294 kts 238°
2026-04-27 21:27 52.40721 5.28734 12435 ft 295 kts 238°
2026-04-27 21:27 52.39649 5.25858 12242 ft 296 kts 239°
2026-04-27 21:27 52.38586 5.22968 12053 ft 296 kts 239°
2026-04-27 21:28 52.37522 5.20086 11862 ft 295 kts 238°
2026-04-27 21:28 52.36458 5.17221 11672 ft 294 kts 238°
2026-04-27 21:28 52.35393 5.14365 11489 ft 294 kts 238°
2026-04-27 21:28 52.34332 5.11521 11301 ft 293 kts 238°
2026-04-27 21:29 52.33508 5.08497 11081 ft 293 kts 260°
2026-04-27 21:29 52.33403 5.05197 10940 ft 290 kts 269°
2026-04-27 21:29 52.33403 5.01894 10745 ft 290 kts 269°
2026-04-27 21:29 52.33395 4.98597 10555 ft 290 kts 269°
2026-04-27 21:30 52.33378 4.95304 10374 ft 290 kts 269°
2026-04-27 21:30 52.33358 4.92008 10154 ft 291 kts 269°
2026-04-27 21:30 52.33337 4.88685 9873 ft 294 kts 269°
2026-04-27 21:30 52.33312 4.85333 9593 ft 295 kts 269°
2026-04-27 21:31 52.33284 4.81993 9311 ft 292 kts 269°
2026-04-27 21:31 52.33256 4.78686 9027 ft 289 kts 269°
2026-04-27 21:31 52.33226 4.75423 8754 ft 286 kts 269°
2026-04-27 21:31 52.33198 4.72176 8482 ft 285 kts 269°
2026-04-27 21:32 52.33169 4.68940 8212 ft 284 kts 269°
2026-04-27 21:32 52.33135 4.65727 7941 ft 282 kts 269°
2026-04-27 21:32 52.33104 4.62562 7673 ft 282 kts 269°
2026-04-27 21:32 52.33070 4.59323 7400 ft 281 kts 269°
2026-04-27 21:33 52.33036 4.56144 7131 ft 279 kts 269°
2026-04-27 21:33 52.33001 4.52977 6869 ft 278 kts 269°
2026-04-27 21:33 52.32969 4.49819 6602 ft 277 kts 269°
2026-04-27 21:33 52.32932 4.46719 6343 ft 277 kts 269°
2026-04-27 21:34 52.32896 4.43577 6077 ft 276 kts 268°
2026-04-27 21:34 52.32466 4.40554 5788 ft 276 kts 240°
2026-04-27 21:34 52.31192 4.38268 5550 ft 273 kts 212°
2026-04-27 21:34 52.29465 4.37138 5291 ft 266 kts 188°
2026-04-27 21:35 52.27633 4.36835 5050 ft 263 kts 182°
2026-04-27 21:35 52.25814 4.36667 4782 ft 261 kts 175°
2026-04-27 21:35 52.24118 4.37486 4517 ft 253 kts 144°
2026-04-27 21:35 52.22891 4.39447 4299 ft 245 kts 121°
2026-04-27 21:36 52.22091 4.41864 4081 ft 240 kts 114°
2026-04-27 21:36 52.21393 4.44322 3838 ft 238 kts 112°
2026-04-27 21:36 52.20871 4.46865 3509 ft 236 kts 94°
2026-04-27 21:36 52.20834 4.49514 3275 ft 232 kts 90°
2026-04-27 21:37 52.20840 4.52061 3004 ft 217 kts 81°
2026-04-27 21:37 52.21453 4.54179 2777 ft 201 kts 53°
2026-04-27 21:37 52.22202 4.56020 2510 ft 188 kts 60°
2026-04-27 21:37 52.22841 4.57811 2261 ft 178 kts 59°
2026-04-27 21:38 52.23469 4.59504 2035 ft 172 kts 58°
2026-04-27 21:38 52.24079 4.61115 1815 ft 161 kts 58°
2026-04-27 21:38 52.24646 4.62602 1622 ft 147 kts 57°
2026-04-27 21:38 52.25161 4.63948 1420 ft 136 kts 57°
2026-04-27 21:39 52.25661 4.65253 1246 ft 136 kts 57°
2026-04-27 21:39 52.26160 4.66571 1067 ft 137 kts 57°
2026-04-27 21:39 52.26663 4.67897 883 ft 137 kts 56°
2026-04-27 21:39 52.27166 4.69193 712 ft 134 kts 56°
2026-04-27 21:40 52.27653 4.70485 530 ft 133 kts 57°
2026-04-27 21:40 52.28151 4.71762 333 ft 135 kts 56°
2026-04-27 21:40 52.28652 4.73047 164 ft 137 kts 56°
2026-04-27 21:40 52.29160 4.74371 8 ft 135 kts 57°
2026-04-27 21:41 52.29572 4.75447 -3 ft 96 kts 58°
2026-04-27 21:41 52.29835 4.76132 -5 ft 55 kts 58°
2026-04-27 21:41 52.30026 4.76535 -3 ft 35 kts 32°
2026-04-27 21:41 52.30201 4.76688 -2 ft 27 kts 27°
2026-04-27 21:42 52.30332 4.76877 -2 ft 25 kts 58°
2026-04-27 21:42 52.30421 4.77104 -2 ft 23 kts 59°
2026-04-27 21:42 52.30505 4.77323 -2 ft 22 kts 57°
2026-04-27 21:42 52.30590 4.77531 -2 ft 22 kts 45°
2026-04-27 21:43 52.30730 4.77593 -2 ft 21 kts
2026-04-27 21:43 52.30810 4.77584 -2 ft 16 kts 330°
2026-04-27 21:43 52.30838 4.77368 -2 ft 15 kts 272°
2026-04-27 21:43 52.30842 4.77241 -2 ft 9 kts 273°
2026-04-27 21:44 52.30840 4.77183 -2 ft 6 kts 240°
2026-04-27 21:44 52.30807 4.77167 -2 ft 4 kts 184°
2026-04-27 21:44 52.30791 4.77165 -2 ft 0 kts 183°